This is the latest recevied weather packets stored in our database for station/object WA0LM. If no packets are shown the sender has not sent any weather packets the latest 10 day(s).
| Time | Temp. | Humidity | Pressure | Rain* | Wind** | Luminosity | Snow |
|---|---|---|---|---|---|---|---|
| 1777826375 | 15.56° C | 34% | 1006.8 hPa | 0 mm | - | 731 W/m² | - |
| 1777826072 | 15.56° C | 35% | 1006.7 hPa | 0 mm | - | 724 W/m² | - |
| 1777825769 | 15° C | 40% | 1006.8 hPa | 0 mm | - | 717 W/m² | - |
| 1777825467 | 15° C | 32% | 1006.7 hPa | 0 mm | - | 709 W/m² | - |
| 1777825164 | 15° C | 37% | 1007.1 hPa | 0 mm | - | 701 W/m² | - |
| 1777824860 | 15.56° C | 36% | 1007.1 hPa | 0 mm | - | 694 W/m² | - |
| 1777824557 | 15° C | 37% | 1006.8 hPa | 0 mm | - | 684 W/m² | - |
| 1777824254 | 14.44° C | 42% | 1006.9 hPa | 0 mm | - | 675 W/m² | - |
| 1777823949 | 14.44° C | 42% | 1006.7 hPa | 0 mm | - | 666 W/m² | - |
| 1777823646 | 14.44° C | 41% | 1006.9 hPa | 0 mm | - | 655 W/m² | - |
| 1777823343 | 14.44° C | 41% | 1006.8 hPa | 0 mm | - | 646 W/m² | - |
| 1777823041 | 14.44° C | 38% | 1006.9 hPa | 0 mm | - | 636 W/m² | - |
| 1777822739 | 13.89° C | 50% | 1006.8 hPa | 0 mm | - | 626 W/m² | - |
| 1777822437 | 13.89° C | 47% | 1006.8 hPa | 0 mm | - | 614 W/m² | - |
| 1777822134 | 13.89° C | 49% | 1006.8 hPa | 0 mm | - | 603 W/m² | - |
| 1777821831 | 13.89° C | 50% | 1006.8 hPa | 0 mm | - | 592 W/m² | - |
| 1777821528 | 13.33° C | 55% | 1006.8 hPa | 0 mm | - | 578 W/m² | - |
| 1777821226 | 13.33° C | 53% | 1006.9 hPa | 0 mm | - | 565 W/m² | - |
| 1777820923 | 13.33° C | 58% | 1006.8 hPa | 0 mm | - | 552 W/m² | - |
| 1777820619 | 13.33° C | 53% | 1006.9 hPa | 0 mm | - | 540 W/m² | - |
| 1777820316 | 13.33° C | 57% | 1006.7 hPa | 0 mm | - | 529 W/m² | - |
| 1777820014 | 12.78° C | 59% | 1006.8 hPa | 0 mm | - | 515 W/m² | - |
| 1777819710 | 12.78° C | 58% | 1007 hPa | 0 mm | - | 502 W/m² | - |
| 1777819409 | 12.78° C | 58% | 1006.7 hPa | 0 mm | - | 489 W/m² | - |
| 1777819106 | 12.78° C | 59% | 1006.8 hPa | 0 mm | - | 475 W/m² | - |
* Rain latest hour (hover to see other rain measurements)
** Current wind speed in m/s (hover to see current wind gust speed)